Home > Weather > The Bottom > Past weeks

Flag for Caribbean Netherlands Weather for the Past 2 Weeks in The Bottom, Saba, Caribbean Netherlands

Now
75 °F

Mild.


Feels Like: 75 °F
Forecast: 74 / 81 °F
Wind: 2 mph from North

Location: Roosevelt Airport / Saint Eustatius

Current Time: Feb 14, 2016 at 9:06:35 AM

Latest Report: Feb 14, 2016 at 7:55 AM


Visibility: N/A

Pressure: 30.01 "Hg

Humidity: 89%

Dew point: 72 °F

Location of The BottomLocation

Historic Weather in The Bottom — Graph

°F

The Bottom Temperature Yesterday

Maximum temperature yesterday: 84 °F (at 11:55 AM)
Minimum temperature yesterday: 77 °F (at 12:55 AM)
Average temperature yesterday: 79 °F

High & Low Weather Summary for the Past Weeks

 TemperatureHumidityPressure
High84 °F (Jan 30, 12:55 PM)94% (Feb 14, 6:55 AM)30.15 "Hg (Feb 14, 6:55 AM)
Low68 °F (Feb 4, 11:55 PM)51% (Feb 4, 11:55 AM)29.86 "Hg (Feb 4, 3:55 PM)
Average78 °F74%30.03 "Hg
* Reported Jan 30 7:55 AM — Feb 14 7:55 AM, The Bottom, Weather by CustomWeather, © 2016

Note: Actual official high and low records may vary slightly from our data, if they occured in-between our weather recording intervals... More about our weather records

Advertising

The Bottom Weather History for the Previous 24 Hours

 ConditionsComfort  
Time TempWeatherWind HumidityBarometerVisibility
7:55 AM
Sun, Feb 14
75 °FMild.2 mph89%30.01 "HgN/A
6:55 AM72 °FMild.1 mph94%29.98 "HgN/A
5:55 AM73 °FMild.5 mph89%29.98 "HgN/A
4:55 AM75 °FMild.3 mph78%29.95 "HgN/A
3:55 AM75 °FMild.6 mph78%29.95 "HgN/A
2:55 AM75 °FMild.7 mph83%29.98 "HgN/A
1:55 AM75 °FMild.8 mph83%29.98 "HgN/A
12:55 AM77 °FWarm.9 mph74%30.01 "HgN/A
11:55 PM
Sat, Feb 13
77 °FWarm.7 mph74%30.04 "HgN/A
10:55 PM77 °FWarm.5 mph69%30.04 "HgN/A
9:55 PM77 °FWarm.8 mph74%30.04 "HgN/A
8:55 PM79 °FWarm.12 mph74%30.04 "HgN/A
7:55 PM79 °FWarm.13 mph70%30.01 "HgN/A
6:55 PM79 °FWarm.8 mph70%30.01 "HgN/A
5:55 PM79 °FWarm.9 mph70%29.98 "HgN/A
4:55 PM81 °FWarm.12 mph70%29.98 "HgN/A
3:55 PM82 °FWarm.15 mph66%29.98 "HgN/A
2:55 PM82 °FWarm.16 mph62%29.98 "HgN/A
1:55 PM82 °FWarm.14 mph62%30.01 "HgN/A
12:55 PM84 °FWarm.13 mph58%30.04 "HgN/A
11:55 AM84 °FWarm.14 mph58%30.04 "HgN/A
10:55 AM82 °FWarm.16 mph62%30.07 "HgN/A
9:55 AM81 °FWarm.14 mph66%30.07 "HgN/A
Weather by CustomWeather, © 2016

See weather overviewHow to use our weather pages